Location: Newark
(41.5333°N, 14.5500°E)
Time: 02:01:58
(UTC+00:00)

Envisat - Pass Details

Date: 29 January 2020
Orbit: 764 x 766 km, 98.1° (Epoch: 25 February)

Event Time Altitude Azimuth Distance (km) Brightness Sun altitude
Rises 16:37:58 0° 160° (SSE) 3,219 6.2 -5.2°
Reaches altitude 10° 16:40:16 10° 158° (SSE) 2,297 5.5 -5.6°
Maximum altitude 16:45:18 73° 75° (ENE) 803 3.0 -6.5°
Drops below altitude 10° 16:50:23 10° 351° (N) 2,312 5.4 -7.4°
Sets 16:52:42 0° 350° (N) 3,242 6.2 -7.8°
